DW7875 Weather Reports


Display with metric or nautical units.
time (UTC)temp
F
wind
direction
speed
MPH
gust
MPH
rain 1hr
in
rain 24hr
in
rain mn
in
humidity
%
barometer
mb
20260508181659 73 240 2.0 4.0 0.00 0.00 0.00 35 1013.1
20260508180059 72 216 2.0 8.0 0.00 0.00 0.00 27 1013.3
20260508174605 72 37 2.0 6.0 0.00 0.00 0.00 27 1013.4
20260508173052 72 131 2.0 8.0 0.00 0.00 0.00 30 1013.5
20260508171556 71 356 3.0 6.0 0.00 0.00 0.00 31 1013.7
20260508170047 70 146 2.0 7.0 0.00 0.00 0.00 30 1014.1
20260508164547 69 348 3.0 9.0 0.00 0.00 0.00 33 1014.2
20260508163107 68 199 3.0 7.0 0.00 0.00 0.00 40 1014.2
20260508161539 68 245 3.0 7.0 0.00 0.00 0.00 36 1014.4
20260508160037 67 137 1.0 3.0 0.00 0.00 0.00 41 1014.7
20260508154537 65 227 1.0 3.0 0.00 0.00 0.00 42 1014.6
20260508153035 66 141 1.0 4.0 0.00 0.00 0.00 39 1015.0
20260508151540 67 148 1.0 4.0 0.00 0.00 0.00 39 1015.2
20260508150033 67 127 1.0 4.0 0.00 0.00 0.00 39 1015.4
20260508144536 67 87 0.0 3.0 0.00 0.00 0.00 36 1015.4
20260508143028 66 185 0.0 2.0 0.00 0.00 0.00 38 1015.5
20260508141525 65 198 1.0 3.0 0.00 0.00 0.00 40 1015.6
20260508140024 63 285 0.0 2.0 0.00 0.00 0.00 45 1015.7
20260508134522 60 323 0.0 1.0 0.00 0.00 0.00 53 1015.7
20260508133011 57 329 0.0 0.0 0.00 0.00 0.00 49 1015.6
20260508131508 56 329 0.0 0.0 0.00 0.00 0.00 55 1015.8
20260508130003 54 329 0.0 3.0 0.00 0.00 0.00 52 1015.9
20260508124559 53 231 0.0 0.0 0.00 0.00 0.00 57 1015.7
20260508123056 50 231 0.0 4.0 0.00 0.00 0.00 58 1015.7
20260508121553 48 359 0.0 2.0 0.00 0.00 0.00 62 1015.6
20260508120050 46 30 0.0 0.0 0.00 0.00 0.00 70 1015.5
20260508114549 45 30 0.0 0.0 0.00 0.00 0.00 71 1015.3
20260508113053 44 30 0.0 0.0 0.00 0.00 0.00 71 1015.2
20260508111547 44 30 0.0 0.0 0.00 0.00 0.00 71 1015.2
20260508110059 43 30 0.0 0.0 0.00 0.00 0.00 69 1015.0
20260508104546 43 30 0.0 0.0 0.00 0.00 0.00 68 1014.7
20260508103041 44 30 0.0 0.0 0.00 0.00 0.00 67 1014.5
20260508101548 44 30 0.0 0.0 0.00 0.00 0.00 66 1014.3
20260508100038 45 30 0.0 0.0 0.00 0.00 0.00 65 1014.2
20260508094544 45 30 0.0 1.0 0.00 0.01 0.00 64 1014.1
20260508093049 46 29 0.0 0.0 0.00 0.01 0.00 64 1014.0
20260508091532 46 29 0.0 0.0 0.00 0.01 0.00 63 1013.9
20260508090034 47 30 0.0 0.0 0.00 0.01 0.00 64 1013.7
20260508084524 48 30 0.0 0.0 0.00 0.02 0.00 63 1013.6
20260508083025 48 30 0.0 1.0 0.00 0.02 0.00 63 1013.3
20260508081520 49 30 0.0 3.0 0.00 0.02 0.00 63 1013.2
20260508080033 49 335 0.0 3.0 0.00 0.02 0.00 65 1012.9
20260508074517 48 262 1.0 4.0 0.00 0.02 0.00 69 1012.8
20260508073012 48 238 0.0 3.0 0.00 0.02 0.00 73 1012.4
20260508071510 48 281 0.0 2.0 0.00 0.02 0.00 76 1012.2
20260508070008 48 209 0.0 5.0 0.00 0.02 0.00 77 1012.0
20260508064510 48 350 0.0 6.0 0.00 0.02 0.00 76 1011.7
20260508063003 48 23 0.0 2.0 0.00 0.02 0.00 75 1011.4
20260508061501 49 56 0.0 2.0 0.00 0.02 0.00 73 1011.5
20260508060100 49 56 0.0 1.0 0.00 0.02 0.00 72 1011.5
20260508054639 49 56 0.0 2.0 0.00 0.14 0.00 72 1011.5
20260508053059 49 59 0.0 2.0 0.00 0.14 0.00 71 1011.4
20260508051556 50 173 0.0 1.0 0.00 0.14 0.00 70 1011.4
20260508050056 50 108 0.0 2.0 0.00 0.14 0.00 70 1011.4
20260508044601 50 77 0.0 2.0 0.00 0.14 0.00 70 1011.2
20260508043052 50 298 0.0 1.0 0.00 0.14 0.00 70 1011.1
20260508041556 49 35 0.0 1.0 0.00 0.14 0.00 71 1011.0
20260508040053 49 35 0.0 2.0 0.00 0.14 0.00 71 1010.9
20260508034555 48 49 0.0 3.0 0.00 0.14 0.14 70 1010.9
20260508033046 48 203 0.0 0.0 0.00 0.14 0.14 68 1010.8
20260508031557 48 203 0.0 1.0 0.00 0.14 0.14 67 1010.9
20260508030105 48 82 0.0 2.0 0.00 0.14 0.14 67 1010.9
20260508024544 47 83 0.0 0.0 0.00 0.14 0.14 66 1010.9
20260508023047 47 83 0.0 3.0 0.00 0.14 0.14 66 1011.0
20260508021542 48 166 0.0 2.0 0.00 0.14 0.14 65 1010.9
20260508020040 48 166 0.0 0.0 0.00 0.14 0.14 64 1010.8
20260508014539 48 166 0.0 0.0 0.00 0.14 0.14 64 1010.7
20260508013038 49 166 0.0 1.0 0.00 0.14 0.14 64 1010.7
20260508011537 49 216 0.0 2.0 0.00 0.14 0.14 63 1010.4
20260508010041 49 216 0.0 1.0 0.00 0.14 0.14 63 1010.3
20260508004533 50 216 0.0 2.0 0.00 0.14 0.14 62 1010.1
20260508003029 51 216 0.0 0.0 0.00 0.14 0.14 60 1010.0
20260508001532 53 216 0.0 0.0 0.00 0.14 0.14 57 1009.8
20260508000025 54 216 0.0 1.0 0.00 0.14 0.14 56 1009.5
20260507234528 55 216 0.0 1.0 0.00 0.14 0.14 53 1009.4
20260507233024 56 216 0.0 2.0 0.00 0.14 0.14 51 1009.1
20260507231523 56 216 1.0 5.0 0.00 0.14 0.14 50 1009.1
20260507230022 57 213 0.0 3.0 0.00 0.14 0.14 49 1009.0
20260507224533 58 207 1.0 5.0 0.00 0.14 0.14 45 1008.8
20260507223022 59 136 0.0 3.0 0.00 0.14 0.14 50 1008.8
20260507221527 60 145 0.0 3.0 0.00 0.14 0.14 44 1008.9
20260507220022 61 145 1.0 3.0 0.00 0.14 0.14 45 1008.8
20260507214521 61 170 1.0 3.0 0.00 0.14 0.14 44 1009.1
20260507213029 61 153 0.0 3.0 0.00 0.14 0.14 45 1009.1
20260507211519 61 165 1.0 3.0 0.00 0.14 0.14 47 1009.0
20260507210040 59 169 1.0 3.0 0.00 0.14 0.14 46 1008.9
20260507204517 59 217 0.0 3.0 0.00 0.14 0.14 47 1009.1
20260507203021 59 148 0.0 3.0 0.00 0.14 0.14 43 1009.3
20260507201518 59 146 0.0 2.0 0.00 0.14 0.14 44 1009.1
20260507200023 59 125 0.0 3.0 0.00 0.14 0.14 43 1009.0
20260507194516 59 340 0.0 3.0 0.00 0.14 0.14 42 1009.5
20260507193024 59 345 0.0 2.0 0.00 0.14 0.14 40 1009.1
20260507191523 60 345 0.0 2.0 0.00 0.14 0.14 45 1009.9
20260507190019 59 349 0.0 3.0 0.00 0.14 0.14 48 1009.6
20260507184513 59 349 0.0 2.0 0.00 0.14 0.14 43 1010.1
20260507183023 59 349 0.0 2.0 0.00 0.14 0.14 47 1010.1